Hooper Bay, AK

1:09 PM AKST on February 25, 2017 (GMT -0900)
Hooper Bay

Weather History for PAHP - April, 2014

Change the Weather History Date:

Friday, April 25, 2014

  Actual Average Record
Temperature  
Mean Temperature 55 °F -  
Max Temperature 66 °F 31 °F 66 °F (2014)
Min Temperature 44 °F 24 °F -25 °F (2008)
Degree Days  
Heating Degree Days 10    
Growing Degree Days 5 (Base 50)    
Moisture  
Dew Point 29 °F    
Average Humidity 39    
Maximum Humidity 50    
Minimum Humidity 24    
Precipitation  
Precipitation 0.00 in - - ()
Sea Level Pressure  
Sea Level Pressure 29.30 in    
Wind  
Wind Speed 9 mph (ENE)    
Max Wind Speed 16 mph    
Max Gust Speed -    
Visibility 10 miles    
Events      
Averages and records for this station are not official NWS values.
T = Trace of Precipitation, MM = Missing Value Source: NWS Daily Summary

Daily Weather History Graph

Daily Weather History Graph

Search for Another Location

Airport or City:

Trip Planner

Search our weather history database for the weather conditions in past years. The results will help you decide how hot, cold, wet, or windy it might be!

Date:

Astronomy

Apr. 25, 2014 Rise Set
Actual Time 7:11 AM AKDT 10:55 PM AKDT
Civil Twilight 6:17 AM AKDT 11:50 PM AKDT
Nautical Twilight 4:54 AM AKDT 1:15 AM AKDT
Astronomical Twilight 3:35 AM AKDT Sun does not rise
Moon 6:14 AM AKDT 6:33 PM AKDT
Length of Visible Light 17h 33m
Length of Day
15h 44m
Waning Crescent, 14% of the Moon is Illuminated
Apr 25
Waning Crescent
Apr 28
New
May 6
First Quarter
May 14
Full
May 21
Last Quarter

Hourly Weather History & Observations

Time (AKDT) Temp. Windchill Dew Point Humidity Pressure Visibility Wind Dir Wind Speed Gust Speed Precip Events Conditions
12:16 AM 46.4 °F 43.5 °F 28.4 °F 50% 29.38 in 10.0 mi NNE 5.8 mph - N/A   Clear
12:36 AM 44.6 °F 41.4 °F 26.6 °F 49% 29.38 in 10.0 mi NNE 5.8 mph - N/A   Clear
12:56 AM 44.6 °F 40.7 °F 26.6 °F 49% 29.37 in 10.0 mi NE 6.9 mph - N/A   Clear
1:16 AM 46.4 °F 41.9 °F 26.6 °F 46% 29.37 in 10.0 mi NE 9.2 mph - N/A   Clear
1:36 AM 48.2 °F - 26.6 °F 43% 29.36 in 10.0 mi NE 9.2 mph - N/A   Scattered Clouds
1:56 AM 46.4 °F 41.9 °F 26.6 °F 46% 29.36 in 10.0 mi NE 9.2 mph - N/A   Mostly Cloudy
2:16 AM 46.4 °F 41.1 °F 26.6 °F 46% 29.35 in 10.0 mi NE 11.5 mph - N/A   Scattered Clouds
2:36 AM 46.4 °F 41.9 °F 24.8 °F 43% 29.35 in 10.0 mi NE 9.2 mph - N/A   Clear
2:56 AM 46.4 °F 42.9 °F 26.6 °F 46% 29.34 in 10.0 mi NE 6.9 mph - N/A   Clear
3:16 AM 46.4 °F 42.4 °F 24.8 °F 43% 29.33 in 10.0 mi NNE 8.1 mph - N/A   Clear
3:36 AM 44.6 °F 40.2 °F 24.8 °F 46% 29.33 in 10.0 mi NNE 8.1 mph - N/A   Clear
3:56 AM 44.6 °F 39.7 °F 24.8 °F 46% 29.32 in 10.0 mi NNE 9.2 mph - N/A   Clear
4:16 AM 44.6 °F 39.7 °F 24.8 °F 46% 29.31 in 10.0 mi North 9.2 mph - N/A   Clear
4:36 AM 44.6 °F 38.8 °F 24.8 °F 46% 29.31 in 10.0 mi North 11.5 mph - N/A   Clear
4:56 AM 46.4 °F 41.9 °F 26.6 °F 46% 29.30 in 10.0 mi NNE 9.2 mph - N/A   Clear
5:16 AM 48.2 °F - 26.6 °F 43% 29.30 in 10.0 mi NNE 9.2 mph - N/A   Mostly Cloudy
5:36 AM 48.2 °F - 28.4 °F 46% 29.30 in 10.0 mi NE 11.5 mph - N/A   Overcast
5:56 AM 50.0 °F - 26.6 °F 40% 29.30 in 10.0 mi NNE 8.1 mph - N/A   Scattered Clouds
6:16 AM 48.2 °F - 26.6 °F 43% 29.29 in 10.0 mi NE 8.1 mph - N/A   Mostly Cloudy
6:36 AM 44.6 °F 40.2 °F 26.6 °F 49% 29.29 in 10.0 mi NNE 8.1 mph - N/A   Mostly Cloudy
6:56 AM 44.6 °F 42.2 °F 24.8 °F 46% 29.29 in 10.0 mi NNE 4.6 mph - N/A   Mostly Cloudy
7:16 AM 46.4 °F 42.4 °F 26.6 °F 46% 29.28 in 10.0 mi ENE 8.1 mph - N/A   Overcast
7:36 AM 46.4 °F 43.5 °F 28.4 °F 50% 29.28 in 10.0 mi ENE 5.8 mph - N/A   Overcast
7:56 AM 48.2 °F - 28.4 °F 46% 29.28 in 10.0 mi East 10.4 mph - N/A   Overcast
8:16 AM 50.0 °F - 28.4 °F 43% 29.28 in 10.0 mi East 15.0 mph - N/A   Overcast
8:36 AM 50.0 °F - 28.4 °F 43% 29.28 in 10.0 mi East 16.1 mph - N/A   Overcast
8:56 AM 48.2 °F - 28.4 °F 46% 29.28 in 10.0 mi East 16.1 mph - N/A   Overcast
9:16 AM 48.2 °F - 28.4 °F 46% 29.28 in 10.0 mi East 16.1 mph - N/A   Overcast
9:36 AM 50.0 °F - 28.4 °F 43% 29.28 in 10.0 mi East 16.1 mph - N/A   Overcast
9:56 AM 50.0 °F - 28.4 °F 43% 29.28 in 10.0 mi East 13.8 mph - N/A   Scattered Clouds
10:16 AM 50.0 °F - 30.2 °F 47% 29.29 in 10.0 mi ENE 11.5 mph - N/A   Partly Cloudy
10:36 AM 51.8 °F - 30.2 °F 44% 29.29 in 10.0 mi ENE 12.7 mph - N/A   Partly Cloudy
10:56 AM 53.6 °F - 30.2 °F 41% 29.29 in 10.0 mi East 13.8 mph - N/A   Clear
11:16 AM 53.6 °F - 30.2 °F 41% 29.29 in 10.0 mi East 13.8 mph - N/A   Clear
11:36 AM 55.4 °F - 30.2 °F 38% 29.29 in 10.0 mi East 13.8 mph - N/A   Clear
11:56 AM 55.4 °F - 30.2 °F 38% 29.29 in 10.0 mi East 13.8 mph - N/A   Clear
12:16 PM 55.4 °F - 30.2 °F 38% 29.29 in 10.0 mi East 10.4 mph - N/A   Clear
12:36 PM 55.4 °F - 30.2 °F 38% 29.29 in 10.0 mi East 11.5 mph - N/A   Clear
12:56 PM 57.2 °F - 32.0 °F 38% 29.29 in 10.0 mi East 11.5 mph - N/A   Clear
1:16 PM 57.2 °F - 33.8 °F 41% 29.29 in 10.0 mi ESE 9.2 mph - N/A   Clear
1:36 PM 57.2 °F - 33.8 °F 41% 29.29 in 10.0 mi ESE 10.4 mph - N/A   Scattered Clouds
1:56 PM 59.0 °F - 33.8 °F 39% 29.29 in 10.0 mi ESE 6.9 mph - N/A   Scattered Clouds
2:16 PM 57.2 °F - 32.0 °F 38% 29.29 in 10.0 mi ESE 6.9 mph - N/A   Clear
2:36 PM 60.8 °F - 33.8 °F 36% 29.29 in 10.0 mi SE 5.8 mph - N/A   Clear
2:56 PM 60.8 °F - 33.8 °F 36% 29.30 in 10.0 mi SE 8.1 mph - N/A   Scattered Clouds
3:16 PM 60.8 °F - 32.0 °F 34% 29.30 in 10.0 mi SE 6.9 mph - N/A   Partly Cloudy
3:36 PM 59.0 °F - 32.0 °F 36% 29.29 in 10.0 mi SE 3.5 mph - N/A   Partly Cloudy
3:56 PM 60.8 °F - 33.8 °F 36% 29.29 in 10.0 mi ESE 6.9 mph - N/A   Mostly Cloudy
4:16 PM 60.8 °F - 33.8 °F 36% 29.29 in 10.0 mi ESE 4.6 mph - N/A   Overcast
4:36 PM 62.6 °F - 33.8 °F 34% 29.29 in 10.0 mi East 8.1 mph - N/A   Overcast
4:56 PM 64.4 °F - 30.2 °F 28% 29.29 in 10.0 mi East 5.8 mph - N/A   Overcast
5:16 PM 64.4 °F - 32.0 °F 30% 29.29 in 10.0 mi East 9.2 mph - N/A   Overcast
5:36 PM 64.4 °F - 30.2 °F 28% 29.28 in 10.0 mi East 11.5 mph - N/A   Overcast
5:56 PM 60.8 °F - 30.2 °F 31% 29.28 in 10.0 mi ENE 12.7 mph - N/A   Overcast
6:16 PM 64.4 °F - 30.2 °F 28% 29.28 in 10.0 mi ENE 15.0 mph - N/A   Overcast
6:36 PM 64.4 °F - 30.2 °F 28% 29.28 in 10.0 mi East 12.7 mph - N/A   Overcast
6:56 PM 62.6 °F - 30.2 °F 30% 29.28 in 10.0 mi ENE 10.4 mph - N/A   Overcast
7:16 PM 64.4 °F - 28.4 °F 26% 29.28 in 10.0 mi East 11.5 mph - N/A   Overcast
7:36 PM 59.0 °F - 28.4 °F 31% 29.28 in 10.0 mi East 9.2 mph - N/A   Mostly Cloudy
7:56 PM 64.4 °F - 28.4 °F 26% 29.28 in 10.0 mi ENE 11.5 mph - N/A   Clear
8:16 PM 66.2 °F - 28.4 °F 24% 29.28 in 10.0 mi ENE 12.7 mph - N/A   Mostly Cloudy
8:36 PM 66.2 °F - 28.4 °F 24% 29.27 in 10.0 mi ENE 11.5 mph - N/A   Partly Cloudy
8:56 PM 66.2 °F - 28.4 °F 24% 29.28 in 10.0 mi ENE 9.2 mph - N/A   Clear
9:16 PM 64.4 °F - 28.4 °F 26% 29.28 in 10.0 mi ENE 8.1 mph - N/A   Clear
9:36 PM 60.8 °F - 30.2 °F 31% 29.28 in 10.0 mi NNE 9.2 mph - N/A   Clear
9:56 PM 57.2 °F - 30.2 °F 36% 29.28 in 10.0 mi North 9.2 mph - N/A   Scattered Clouds
10:16 PM 53.6 °F - 30.2 °F 41% 29.29 in 10.0 mi NNE 8.1 mph - N/A   Scattered Clouds
10:36 PM 55.4 °F - 30.2 °F 38% 29.29 in 10.0 mi NNE 8.1 mph - N/A   Overcast
10:56 PM 53.6 °F - 30.2 °F 41% 29.29 in 10.0 mi NE 8.1 mph - N/A   Overcast
11:16 PM 51.8 °F - 28.4 °F 41% 29.29 in 10.0 mi NE 10.4 mph - N/A   Mostly Cloudy
11:36 PM 51.8 °F - 28.4 °F 41% 29.30 in 10.0 mi NE 9.2 mph - N/A   Overcast
11:56 PM 51.8 °F - 28.4 °F 41% 29.30 in 10.0 mi NE 10.4 mph - N/A   Overcast